QPF
0.00 0.00 0.00 0.01 0.01 0.02 0.03 0.01 0.00 0.00 0.00 0.00 0.00 0.00 0.00 0.00 0.00 0.00 0.00 0.00 0.01 0.04 0.06 0.03 0.01 0.00 0.00 0.00 0.00 0.00 0.00 0.00 0.00 0.00 0.00 0.00 0.00 0.00 0.00 0.00 0.00 0.00 0.00
0.00 0.00 0.00 0.01 0.01 0.03 0.03 0.02 0.01 0.00 0.00 0.00 0.00 0.00 0.00 0.00 0.00 0.00 0.00 0.00 0.01 0.04 0.02 0.01 0.00 0.00 0.00 0.00 0.00 0.00 0.00 0.00 0.00 0.00 0.00 0.00 0.00 0.00 0.00 0.00 0.00 0.00 0.01
0.00 0.00 0.00 0.00 0.01 0.05 0.04 0.01 0.01 0.00 0.01 0.00 0.00 0.00 0.00 0.00 0.00 0.01 0.01 0.00 0.02 0.03 0.02 0.00 0.00 0.00 0.00 0.00 0.00 0.00 0.00 0.00 0.00 0.00 0.00 0.00 0.00 0.00 0.00 0.00 0.01 0.02 0.04
0.00 0.00 0.00 0.00 0.00 0.02 0.11 0.08 0.03 0.02 0.02 0.04 0.02 0.00 0.00 0.01 0.01 0.02 0.04 0.04 0.04 0.05 0.03 0.00 0.00 0.00 0.00 0.00 0.00 0.00 0.00 0.00 0.00 0.00 0.00 0.00 0.00 0.00 0.01 0.01 0.05 0.04 0.05
0.00 0.00 0.00 0.00 0.01 0.00 0.09 0.16 0.12 0.08 0.07 0.06 0.09 0.04 0.05 0.02 0.02 0.03 0.05 0.04 0.06 0.07 0.04 0.01 0.00 0.00 0.00 0.00 0.00 0.00 0.00 0.00 0.00 0.00 0.00 0.00 0.00 0.01 0.03 0.04 0.06 0.04 0.04
0.00 0.00 0.00 0.00 0.00 0.02 0.04 0.08 0.12 0.13 0.10 0.08 0.10 0.08 0.08 0.08 0.09 0.11 0.10 0.04 0.05 0.08 0.04 0.01 0.01 0.00 0.00 0.00 0.00 0.00 0.00 0.00 0.00 0.00 0.00 0.00 0.01 0.06 0.08 0.05 0.04 0.02 0.01
0.00 0.00 0.00 0.00 0.00 0.01 0.02 0.08 0.10 0.04 0.06 0.08 0.10 0.13 0.15 0.09 0.07 0.05 0.11 0.06 0.05 0.10 0.06 0.03 0.00 0.00 0.00 0.00 0.00 0.00 0.00 0.00 0.00 0.00 0.00 0.01 0.05 0.11 0.04 0.00 0.00 0.00 0.00
0.00 0.00 0.00 0.00 0.00 0.00 0.02 0.02 0.04 0.05 0.04 0.02 0.03 0.09 0.15 0.17 0.13 0.07 0.09 0.12 0.07 0.08 0.10 0.06 0.03 0.00 0.00 0.00 0.00 0.00 0.00 0.00 0.00 0.00 0.00 0.02 0.05 0.07 0.00 0.00 0.00 0.00 0.00
0.00 0.00 0.00 0.00 0.00 0.00 0.01 0.02 0.03 0.04 0.06 0.04 0.01 0.01 0.05 0.14 0.23 0.21 0.13 0.13 0.15 0.10 0.08 0.08 0.04 0.01 0.00 0.00 0.00 0.00 0.00 0.00 0.00 0.00 0.00 0.02 0.03 0.02 0.00 0.00 0.00 0.00 0.00
0.00 0.00 0.00 0.00 0.00 0.00 0.00 0.00 0.01 0.04 0.07 0.09 0.03 0.00 0.00 0.02 0.08 0.16 0.22 0.21 0.18 0.19 0.16 0.06 0.02 0.01 0.00 0.00 0.00 0.01 0.00 0.00 0.01 0.00 0.01 0.01 0.01 0.01 0.00 0.00 0.00 0.00 0.00
0.00 0.00 0.00 0.00 0.00 0.00 0.00 0.00 0.00 0.01 0.06 0.06 0.10 0.06 0.01 0.02 0.03 0.06 0.14 0.24 0.23 0.17 0.19 0.13 0.04 0.01 0.00 0.00 0.00 0.00 0.01 0.02 0.06 0.01 0.01 0.01 0.02 0.01 0.00 0.00 0.00 0.00 0.00
0.00 0.00 0.00 0.00 0.00 0.00 0.00 0.00 0.00 0.00 0.05 0.06 0.05 0.05 0.05 0.02 0.07 0.08 0.19 0.27 0.30 0.22 0.15 0.12 0.06 0.01 0.00 0.00 0.00 0.01 0.02 0.02 0.03 0.00 0.00 0.00 0.01 0.01 0.00 0.00 0.00 0.00 0.00
0.00 0.00 0.00 0.00 0.00 0.00 0.00 0.00 0.00 0.00 0.00 0.02 0.04 0.04 0.04 0.04 0.04 0.06 0.10 0.17 0.20 0.16 0.07 0.04 0.03 0.00 0.00 0.00 0.00 0.01 0.01 0.02 0.01 0.00 0.00 0.00 0.01 0.00 0.00 0.00 0.00 0.00 0.00
0.00 0.00 0.00 0.00 0.00 0.00 0.00 0.00 0.00 0.00 0.00 0.00 0.00 0.01 0.02 0.02 0.03 0.07 0.07 0.04 0.06 0.10 0.08 0.07 0.04 0.01 0.00 0.00 0.00 0.01 0.01 0.02 0.02 0.02 0.00 0.00 0.00 0.01 0.00 0.00 0.00 0.00 0.00
0.00 0.00 0.00 0.00 0.00 0.00 0.00 0.00 0.00 0.00 0.00 0.00 0.00 0.00 0.00 0.00 0.00 0.01 0.05 0.06 0.06 0.07 0.05 0.05 0.09 0.08 0.02 0.01 0.01 0.02 0.02 0.02 0.02 0.02 0.02 0.00 0.00 0.01 0.02 0.01 0.00 0.00 0.00
0.00 0.00 0.00 0.00 0.00 0.00 0.00 0.00 0.00 0.00 0.00 0.00 0.00 0.00 0.00 0.00 0.00 0.00 0.02 0.03 0.03 0.03 0.00 0.00 0.04 0.09 0.07 0.04 0.00 0.01 0.05 0.04 0.04 0.02 0.01 0.00 0.00 0.00 0.01 0.05 0.10 0.04 0.01
0.00 0.00 0.00 0.00 0.00 0.00 0.00 0.00 0.00 0.00 0.00 0.00 0.00 0.00 0.00 0.00 0.00 0.00 0.00 0.02 0.01 0.01 0.00 0.00 0.00 0.06 0.09 0.10 0.05 0.01 0.01 0.04 0.14 0.09 0.08 0.09 0.02 0.00 0.00 0.00 0.07 0.16 0.16
0.00 0.00 0.00 0.00 0.00 0.00 0.00 0.00 0.00 0.00 0.00 0.00 0.00 0.00 0.00 0.00 0.00 0.00 0.00 0.00 0.03 0.03 0.01 0.00 0.00 0.02 0.04 0.07 0.11 0.11 0.07 0.09 0.14 0.14 0.13 0.15 0.14 0.07 0.00 0.00 0.00 0.03 0.12
0.00 0.00 0.00 0.00 0.00 0.00 0.00 0.00 0.00 0.00 0.00 0.00 0.00 0.00 0.00 0.00 0.00 0.00 0.00 0.00 0.01 0.02 0.01 0.00 0.00 0.01 0.01 0.03 0.06 0.07 0.08 0.10 0.08 0.09 0.08 0.04 0.01 0.00 0.00 0.00 0.00 0.00 0.04
0.00 0.00 0.00 0.00 0.00 0.00 0.00 0.00 0.00 0.00 0.00 0.00 0.00 0.00 0.00 0.00 0.00 0.00 0.00 0.00 0.01 0.01 0.01 0.00 0.00 0.01 0.02 0.04 0.03 0.02 0.01 0.01 0.01 0.01 0.02 0.00 0.00 0.00 0.00 0.00 0.00 0.00 0.01
0.00 0.00 0.00 0.00 0.00 0.00 0.00 0.00 0.00 0.00 0.00 0.00 0.00 0.00 0.00 0.00 0.00 0.00 0.00 0.00 0.00 0.02 0.01 0.01 0.01 0.01 0.02 0.02 0.01 0.01 0.00 0.00 0.00 0.00 0.00 0.00 0.00 0.00 0.01 0.00 0.00 0.00 0.00
0.00 0.00 0.00 0.00 0.00 0.00 0.00 0.00 0.00 0.00 0.00 0.00 0.00 0.00 0.00 0.00 0.00 0.00 0.00 0.00 0.00 0.01 0.03 0.03 0.03 0.03 0.04 0.01 0.01 0.01 0.00 0.00 0.00 0.00 0.00 0.00 0.00 0.00 0.01 0.01 0.01 0.01 0.01
0.00 0.00 0.00 0.00 0.00 0.00 0.00 0.00 0.00 0.00 0.00 0.00 0.00 0.00 0.00 0.00 0.00 0.00 0.00 0.00 0.00 0.01 0.01 0.02 0.04 0.04 0.03 0.03 0.01 0.00 0.00 0.00 0.00 0.00 0.00 0.00 0.00 0.00 0.00 0.00 0.00 0.00 0.00
0.00 0.00 0.00 0.00 0.00 0.00 0.00 0.00 0.00 0.00 0.00 0.00 0.00 0.00 0.00 0.00 0.00 0.00 0.00 0.00 0.00 0.01 0.02 0.03 0.02 0.02 0.02 0.01 0.02 0.01 0.00 0.00 0.00 0.00 0.00 0.00 0.00 0.00 0.00 0.00 0.00 0.00 0.00
0.00 0.00 0.00 0.00 0.00 0.00 0.00 0.00 0.00 0.00 0.00 0.00 0.00 0.00 0.00 0.00 0.00 0.00 0.00 0.00 0.00 0.01 0.02 0.05 0.05 0.03 0.02 0.02 0.01 0.00 0.00 0.00 0.00 0.00 0.00 0.00 0.00 0.00 0.00 0.00 0.00 0.00 0.00
0.00 0.00 0.00 0.00 0.00 0.00 0.00 0.00 0.00 0.00 0.00 0.00 0.00 0.00 0.00 0.00 0.00 0.00 0.00 0.00 0.00 0.00 0.01 0.01 0.03 0.03 0.02 0.01 0.01 0.01 0.00 0.00 0.00 0.00 0.00 0.00 0.00 0.00 0.00 0.00 0.00 0.00 0.00
MSLP
1009.47 1009.35 1009.73 1009.51 1008.92 1008.63 1008.54 1008.54 1008.85 1008.94 1009.11 1009.20 1009.47 1009.57 1009.86 1009.93 1010.09 1010.33 1010.36 1010.63 1011.03 1011.18 1011.48 1011.74 1011.93 1012.28 1012.57 1012.81 1013.04 1013.18 1013.47 1013.98 1014.33 1014.65 1014.89 1015.03 1015.23 1015.38 1015.55 1015.69 1015.77 1015.62 1016.07
1010.07 1010.17 1010.10 1009.91 1009.25 1008.69 1008.45 1008.48 1008.73 1008.96 1009.18 1009.18 1009.36 1009.59 1009.71 1010.12 1010.14 1010.50 1010.62 1010.72 1011.01 1011.41 1011.56 1011.82 1012.15 1012.48 1012.86 1013.18 1013.33 1013.58 1013.76 1013.95 1014.29 1014.72 1015.03 1015.30 1015.46 1015.62 1015.78 1015.88 1015.72 1015.64 1016.09
1010.37 1010.58 1010.31 1010.37 1009.67 1009.05 1008.44 1008.43 1008.50 1008.83 1009.02 1009.20 1009.34 1009.47 1009.80 1009.98 1010.19 1010.46 1010.77 1010.98 1011.14 1011.33 1011.63 1012.03 1012.28 1012.60 1013.02 1013.42 1013.70 1013.91 1014.12 1014.33 1014.51 1014.68 1014.92 1014.90 1015.31 1015.73 1015.92 1016.05 1016.07 1015.91 1016.05
1010.77 1010.82 1010.97 1010.75 1010.05 1009.44 1008.83 1008.36 1008.33 1008.58 1008.83 1009.10 1009.26 1009.55 1009.64 1009.93 1010.17 1010.40 1010.80 1010.96 1011.33 1011.52 1011.81 1012.08 1012.46 1012.89 1013.24 1013.53 1013.84 1014.13 1014.43 1014.63 1014.81 1014.98 1014.79 1014.20 1014.58 1015.57 1015.80 1016.03 1016.20 1016.23 1016.27
1011.15 1011.06 1011.31 1011.14 1010.62 1010.07 1009.53 1009.12 1008.64 1008.59 1008.69 1008.87 1009.23 1009.47 1009.52 1009.89 1010.14 1010.34 1010.69 1011.04 1011.31 1011.62 1011.88 1012.17 1012.57 1012.98 1013.49 1013.62 1013.92 1014.19 1014.56 1014.79 1015.07 1015.15 1014.38 1014.01 1014.35 1015.22 1015.55 1016.01 1016.46 1016.59 1016.61
1011.60 1011.44 1011.59 1011.65 1011.19 1010.82 1010.38 1009.85 1009.33 1008.90 1008.90 1008.92 1009.15 1009.30 1009.51 1009.80 1009.96 1010.10 1010.54 1010.86 1011.31 1011.65 1011.83 1012.11 1012.54 1013.07 1013.50 1013.74 1014.01 1014.21 1014.60 1014.88 1015.12 1014.87 1014.24 1014.50 1014.81 1015.48 1015.80 1016.18 1016.60 1016.83 1016.99
1011.81 1011.89 1011.79 1012.01 1011.76 1011.30 1010.90 1010.47 1009.94 1009.38 1009.00 1009.06 1009.11 1009.09 1009.38 1009.47 1009.90 1010.03 1010.31 1010.74 1011.08 1011.53 1011.88 1012.11 1012.52 1013.02 1013.53 1013.77 1014.04 1014.39 1014.68 1014.99 1014.89 1014.26 1014.17 1014.74 1015.27 1015.87 1016.19 1016.51 1016.76 1016.97 1017.22
1011.97 1012.09 1012.03 1012.06 1012.01 1011.80 1011.38 1010.98 1010.73 1010.08 1009.53 1009.20 1009.02 1009.04 1009.08 1009.25 1009.58 1009.87 1010.15 1010.43 1010.80 1011.31 1011.79 1012.16 1012.55 1013.01 1013.49 1013.89 1014.16 1014.46 1014.86 1015.06 1014.86 1013.80 1014.09 1014.88 1015.68 1016.03 1016.40 1016.83 1017.06 1017.35 1017.64
1012.42 1012.47 1012.47 1012.37 1012.20 1012.04 1011.66 1011.25 1011.11 1010.79 1010.01 1009.65 1009.40 1009.14 1009.11 1009.20 1009.40 1009.60 1009.82 1010.22 1010.56 1011.01 1011.54 1012.03 1012.52 1012.92 1013.41 1013.81 1014.21 1014.57 1014.85 1015.00 1014.35 1013.64 1014.64 1015.29 1015.93 1016.15 1016.57 1016.97 1017.24 1017.58 1017.98
1013.10 1013.07 1013.02 1012.73 1012.51 1012.31 1012.12 1011.50 1011.22 1010.98 1010.65 1010.11 1009.72 1009.39 1009.29 1009.33 1009.39 1009.54 1009.76 1009.95 1010.21 1010.65 1011.07 1011.71 1012.29 1012.79 1013.28 1013.63 1014.12 1014.54 1014.80 1014.94 1014.51 1013.86 1014.92 1015.49 1016.09 1016.24 1016.72 1017.09 1017.29 1017.58 1018.01
1013.56 1013.58 1013.41 1013.02 1012.87 1012.60 1012.22 1011.69 1011.37 1010.92 1010.66 1010.42 1009.81 1009.47 1009.21 1008.99 1008.97 1009.18 1009.40 1009.81 1010.01 1010.26 1010.73 1011.36 1011.97 1012.58 1013.17 1013.60 1014.07 1014.54 1014.78 1014.71 1014.42 1013.87 1014.99 1015.88 1016.16 1016.31 1016.74 1017.21 1017.56 1017.66 1017.99
1014.02 1013.97 1013.63 1013.36 1013.10 1012.73 1012.37 1011.98 1011.69 1010.93 1010.64 1010.44 1009.99 1009.46 1009.35 1009.11 1008.92 1009.01 1009.14 1009.55 1009.83 1010.17 1010.71 1011.31 1011.87 1012.50 1013.04 1013.25 1013.94 1014.60 1014.60 1014.29 1014.38 1014.42 1014.44 1015.61 1016.26 1016.46 1016.77 1017.27 1017.56 1017.80 1017.93
1014.68 1014.21 1013.93 1013.77 1013.34 1012.90 1012.39 1012.26 1011.77 1011.29 1010.70 1010.34 1010.14 1009.83 1009.44 1009.15 1008.88 1008.96 1009.17 1009.50 1009.95 1010.28 1010.70 1011.22 1011.58 1012.16 1012.44 1012.70 1013.25 1013.95 1014.15 1014.15 1014.17 1014.39 1015.23 1015.43 1016.11 1016.47 1016.75 1017.23 1017.50 1017.69 1017.90
1015.13 1014.69 1014.28 1013.92 1013.65 1013.12 1012.48 1012.07 1011.78 1011.38 1010.95 1010.26 1009.89 1009.62 1009.38 1009.06 1009.03 1009.11 1009.15 1009.29 1009.65 1010.21 1010.70 1010.14 1011.27 1011.78 1012.17 1012.46 1012.63 1013.42 1013.71 1013.92 1014.12 1014.29 1015.05 1015.45 1016.11 1016.42 1016.53 1016.98 1017.37 1017.71 1017.94
1015.53 1015.11 1014.59 1014.16 1013.71 1013.19 1012.58 1011.87 1011.57 1011.18 1010.83 1010.38 1009.99 1009.62 1009.13 1009.28 1009.16 1009.22 1009.17 1009.40 1009.51 1010.28 1010.40 1011.02 1011.50 1012.21 1012.36 1012.52 1012.63 1012.96 1013.47 1013.82 1014.22 1014.61 1014.82 1015.35 1016.04 1016.45 1016.45 1016.75 1017.17 1017.48 1017.83
1015.87 1015.59 1014.94 1014.33 1013.80 1013.11 1012.60 1012.01 1011.28 1011.02 1010.50 1010.21 1009.86 1009.49 1009.18 1009.06 1009.05 1009.17 1009.28 1009.49 1009.38 1010.10 1010.56 1011.03 1011.12 1012.01 1012.63 1012.39 1012.49 1012.78 1013.38 1013.66 1014.17 1014.49 1014.56 1015.27 1015.80 1016.23 1016.53 1016.65 1016.89 1017.12 1017.44
1015.90 1015.51 1015.06 1014.43 1013.71 1013.10 1012.47 1011.93 1011.14 1010.25 1009.98 1010.16 1009.84 1009.47 1009.14 1009.28 1009.06 1009.16 1009.15 1009.34 1009.14 1009.43 1010.44 1011.14 1011.21 1011.58 1012.05 1012.60 1012.63 1012.84 1013.06 1013.63 1013.96 1014.22 1014.52 1014.91 1015.58 1016.27 1016.65 1016.71 1016.79 1017.03 1017.25
1016.25 1015.77 1015.27 1014.68 1013.98 1013.17 1012.21 1011.63 1010.86 1009.75 1009.52 1009.58 1009.75 1009.41 1009.38 1008.90 1009.25 1009.19 1009.02 1009.19 1009.04 1009.45 1009.88 1010.41 1011.08 1011.73 1011.49 1011.89 1012.55 1013.08 1013.33 1013.69 1013.88 1014.15 1014.34 1014.78 1015.24 1016.03 1016.77 1016.70 1016.53 1016.70 1016.97
1016.64 1016.17 1015.66 1015.01 1014.26 1013.38 1012.73 1012.00 1010.87 1009.84 1009.01 1009.05 1009.05 1009.06 1009.60 1008.70 1008.88 1008.95 1009.00 1009.12 1008.76 1009.09 1009.49 1009.98 1010.52 1011.17 1011.70 1012.32 1012.52 1013.54 1014.32 1014.88 1015.61 1015.69 1016.15 1016.39 1016.74 1017.14 1017.55 1017.54 1016.94 1016.83 1016.89
1016.96 1016.35 1015.91 1015.13 1014.41 1013.39 1012.77 1012.08 1010.77 1009.42 1008.85 1008.70 1008.67 1008.74 1009.04 1008.95 1008.93 1009.29 1009.29 1008.86 1008.49 1008.44 1008.81 1009.49 1009.99 1010.67 1011.47 1012.19 1013.26 1014.20 1015.06 1015.71 1016.69 1016.73 1017.17 1017.40 1017.93 1018.36 1018.85 1018.60 1018.18 1018.11 1017.62
1017.03 1016.28 1015.78 1015.14 1014.48 1013.51 1012.87 1012.53 1011.37 1009.97 1008.36 1008.09 1008.41 1008.24 1008.60 1008.58 1008.84 1009.10 1008.02 1008.43 1008.42 1008.41 1008.42 1009.21 1010.02 1010.41 1011.18 1012.35 1013.71 1015.33 1015.61 1016.54 1017.10 1017.90 1017.63 1018.06 1018.42 1019.07 1019.67 1019.71 1019.66 1019.43 1019.64
1017.29 1016.37 1015.88 1015.24 1014.71 1013.78 1013.08 1012.89 1012.33 1011.31 1010.25 1008.81 1008.09 1008.37 1008.30 1008.45 1008.87 1008.44 1008.36 1008.23 1008.12 1008.46 1008.34 1008.52 1009.50 1009.86 1010.60 1011.68 1012.45 1014.04 1015.96 1017.77 1018.08 1018.99 1018.78 1018.31 1019.35 1019.78 1019.87 1020.65 1020.49 1020.67 1020.92
1017.40 1016.76 1015.85 1015.32 1014.70 1013.88 1013.22 1012.60 1012.05 1011.01 1009.89 1009.05 1008.49 1008.04 1008.08 1008.48 1009.14 1008.92 1008.76 1008.64 1008.63 1008.16 1007.90 1008.09 1008.99 1009.29 1010.04 1011.03 1011.08 1012.08 1014.20 1015.29 1018.07 1019.93 1020.09 1019.68 1019.95 1020.61 1021.44 1021.06 1021.30 1021.80 1021.26
1017.28 1016.63 1015.85 1015.30 1014.87 1014.04 1013.49 1012.60 1012.07 1011.35 1010.33 1009.01 1008.45 1008.32 1008.69 1009.38 1009.52 1009.95 1009.94 1009.45 1008.98 1008.22 1007.76 1007.94 1008.44 1009.10 1009.64 1009.89 1010.81 1011.07 1012.07 1013.78 1016.12 1019.32 1020.53 1021.26 1021.36 1021.07 1022.06 1021.93 1021.96 1022.19 1022.55
1017.19 1016.51 1015.78 1015.21 1014.75 1014.34 1013.61 1012.66 1012.15 1011.57 1010.99 1010.07 1009.45 1009.10 1009.22 1009.96 1010.38 1010.42 1009.89 1009.79 1008.97 1008.95 1007.83 1007.72 1008.30 1008.78 1009.10 1009.46 1010.27 1011.20 1012.43 1013.52 1014.62 1016.36 1019.31 1021.63 1021.95 1022.30 1022.34 1022.49 1022.65 1022.91 1022.92
1017.16 1016.46 1015.83 1015.33 1014.81 1014.37 1013.64 1012.75 1012.38 1012.19 1011.70 1010.78 1010.16 1009.69 1009.88 1010.27 1010.40 1010.54 1010.71 1010.38 1010.21 1009.61 1009.25 1008.97 1008.94 1009.12 1009.39 1009.61 1010.28 1011.01 1011.81 1013.04 1014.19 1014.81 1017.85 1020.26 1021.48 1023.36 1023.13 1023.81 1023.44 1023.17 1023.29
Thickness
5701 5706 5705 5707 5714 5716 5717 5720 5719 5720 5720 5720 5719 5721 5722 5723 5725 5725 5728 5727 5723 5724 5724 5724 5724 5723 5721 5721 5721 5722 5721 5718 5717 5715 5713 5713 5712 5713 5713 5713 5713 5715 5713
5695 5695 5697 5700 5706 5712 5715 5716 5716 5716 5716 5718 5718 5716 5719 5718 5720 5720 5722 5723 5722 5719 5720 5720 5720 5719 5717 5716 5716 5716 5716 5716 5715 5712 5711 5710 5710 5710 5710 5710 5713 5713 5711
5688 5686 5690 5692 5699 5705 5710 5712 5713 5712 5713 5713 5714 5714 5714 5715 5715 5715 5716 5717 5717 5717 5717 5715 5715 5715 5714 5713 5711 5711 5710 5710 5710 5710 5710 5711 5709 5707 5706 5707 5708 5710 5710
5679 5680 5680 5683 5690 5697 5703 5708 5709 5709 5708 5708 5709 5708 5710 5709 5712 5711 5710 5712 5711 5711 5711 5711 5711 5710 5709 5709 5709 5707 5705 5705 5705 5706 5708 5713 5712 5706 5705 5704 5704 5706 5707
5668 5671 5671 5674 5679 5686 5691 5696 5701 5702 5703 5705 5703 5703 5705 5704 5705 5707 5706 5705 5706 5706 5706 5706 5705 5705 5703 5704 5704 5704 5702 5701 5700 5700 5707 5712 5711 5706 5705 5702 5699 5700 5701
5655 5658 5659 5662 5667 5673 5678 5684 5689 5694 5696 5698 5698 5700 5701 5700 5701 5703 5702 5701 5701 5701 5702 5701 5700 5698 5697 5698 5698 5699 5697 5697 5696 5698 5704 5704 5704 5701 5700 5698 5696 5694 5694
5644 5645 5649 5649 5653 5660 5665 5671 5677 5683 5689 5690 5692 5696 5696 5698 5697 5698 5699 5697 5697 5696 5695 5696 5695 5693 5692 5692 5692 5691 5691 5690 5692 5699 5701 5698 5696 5692 5692 5692 5691 5690 5689
5630 5632 5634 5636 5641 5645 5651 5657 5663 5671 5677 5683 5687 5689 5692 5695 5694 5694 5694 5694 5694 5692 5690 5689 5688 5688 5686 5686 5686 5685 5684 5684 5687 5697 5697 5693 5688 5686 5685 5683 5683 5682 5680
5613 5616 5618 5620 5624 5630 5637 5644 5649 5656 5667 5672 5676 5681 5683 5687 5689 5691 5692 5691 5690 5689 5686 5684 5682 5682 5680 5680 5679 5679 5679 5679 5685 5692 5687 5685 5681 5680 5678 5677 5677 5675 5672
5592 5595 5600 5605 5608 5612 5619 5629 5636 5642 5650 5659 5665 5671 5676 5679 5681 5685 5687 5687 5686 5684 5683 5678 5676 5676 5675 5675 5673 5673 5674 5674 5679 5685 5679 5677 5674 5674 5671 5670 5671 5670 5668
5570 5573 5578 5586 5591 5596 5602 5612 5621 5630 5638 5645 5654 5661 5667 5673 5677 5678 5682 5682 5682 5680 5679 5675 5671 5669 5669 5669 5668 5667 5668 5668 5672 5679 5673 5668 5668 5667 5666 5663 5662 5664 5662
5549 5551 5556 5563 5571 5579 5586 5594 5603 5614 5623 5632 5641 5651 5657 5663 5669 5673 5675 5676 5676 5674 5672 5669 5666 5662 5661 5664 5662 5661 5662 5666 5666 5668 5671 5663 5660 5660 5659 5657 5656 5656 5657
5523 5531 5535 5540 5547 5557 5569 5576 5585 5595 5606 5617 5626 5635 5644 5653 5660 5664 5666 5667 5666 5667 5666 5665 5662 5659 5658 5660 5661 5658 5658 5660 5661 5663 5660 5659 5654 5653 5653 5651 5650 5650 5651
5500 5503 5511 5517 5526 5534 5547 5558 5568 5578 5587 5601 5612 5622 5632 5643 5649 5652 5656 5658 5660 5660 5661 5661 5655 5655 5655 5653 5657 5654 5655 5654 5654 5656 5655 5653 5648 5647 5649 5646 5643 5642 5644
5470 5477 5483 5492 5502 5514 5525 5539 5551 5562 5572 5583 5595 5607 5619 5626 5633 5640 5644 5648 5652 5649 5654 5647 5642 5639 5643 5643 5647 5650 5648 5648 5647 5646 5649 5647 5641 5639 5642 5641 5639 5638 5636
5434 5442 5454 5465 5476 5490 5504 5518 5533 5544 5557 5567 5579 5592 5604 5613 5620 5626 5631 5637 5644 5636 5636 5638 5644 5637 5631 5637 5642 5642 5641 5642 5640 5639 5641 5639 5636 5633 5633 5634 5634 5633 5631
5403 5412 5424 5438 5452 5467 5483 5497 5513 5530 5542 5551 5563 5576 5590 5597 5605 5612 5619 5624 5630 5634 5630 5627 5634 5632 5631 5629 5635 5637 5635 5633 5632 5634 5634 5632 5630 5626 5625 5626 5627 5626 5625
5380 5384 5393 5406 5423 5440 5461 5478 5495 5516 5527 5537 5547 5560 5571 5585 5590 5598 5607 5612 5618 5623 5625 5626 5626 5623 5632 5631 5629 5628 5628 5625 5625 5624 5626 5626 5622 5615 5614 5620 5623 5623 5622
5363 5365 5371 5379 5395 5413 5434 5453 5474 5495 5513 5524 5534 5546 5552 5570 5580 5592 5596 5601 5610 5614 5617 5621 5623 5621 5620 5621 5623 5614 5611 5608 5604 5607 5606 5606 5605 5604 5603 5607 5615 5615 5615
5346 5348 5352 5361 5372 5391 5411 5430 5454 5480 5496 5507 5520 5532 5542 5556 5566 5574 5580 5591 5602 5610 5613 5614 5618 5618 5611 5611 5608 5602 5598 5594 5590 5592 5591 5593 5590 5588 5587 5592 5595 5596 5599
5334 5338 5340 5345 5355 5373 5387 5404 5428 5454 5480 5496 5508 5522 5530 5543 5551 5560 5579 5583 5591 5599 5605 5603 5604 5609 5604 5602 5592 5584 5585 5580 5579 5575 5581 5579 5578 5574 5572 5575 5577 5577 5575
5323 5328 5328 5332 5340 5355 5369 5383 5402 5427 5453 5480 5499 5507 5518 5528 5535 5552 5562 5572 5582 5587 5593 5599 5598 5603 5603 5597 5594 5588 5577 5565 5564 5557 5564 5571 5565 5562 5564 5559 5561 5560 5558
5315 5316 5319 5322 5331 5344 5357 5372 5390 5416 5439 5462 5478 5496 5508 5521 5523 5536 5550 5559 5567 5579 5588 5593 5591 5596 5596 5595 5600 5594 5583 5592 5553 5543 5546 5551 5553 5549 5542 5545 5544 5540 5546
5311 5313 5315 5319 5325 5336 5347 5364 5380 5398 5423 5452 5474 5490 5502 5505 5515 5519 5530 5543 5554 5570 5582 5587 5588 5589 5591 5596 5593 5595 5592 5579 5568 5543 5533 5530 5533 5537 5529 5528 5529 5527 5527
5309 5310 5314 5319 5325 5332 5342 5357 5371 5389 5413 5437 5458 5475 5490 5496 5502 5511 5522 5532 5548 5557 5576 5583 5583 5584 5588 5592 5593 5589 5580 5576 5571 5562 5538 5516 5520 5516 5519 5515 5512 5511 5513
5307 5309 5313 5316 5321 5327 5338 5352 5364 5379 5400 5427 5449 5468 5479 5487 5496 5502 5507 5521 5531 5545 5555 5563 5568 5574 5576 5582 5585 5585 5582 5574 5568 5566 5540 5524 5516 5498 5504 5497 5498 5501 5500